Home > Weather > Boa Vista > Past weeks

Flag for Brazil Weather for the Past 2 Weeks in Boa Vista, Roraima, Brazil

Now
75 °F

Sprinkles. Partly sunny.


Feels Like: 75 °F
Forecast: 71 / 82 °F
Wind: 5 mph from Southwest

Location: Boa Vista Aeropor-To

Current Time: May 5, 2016 at 7:25:11 AM

Latest Report: May 5, 2016 at 7:00 AM


Visibility: N/A

Pressure: N/A

Humidity: 89%

Dew Point: 72 °F

Location of Boa VistaLocation

Historic Weather in Boa Vista — Graph

°F

Boa Vista Temperature Yesterday

Maximum temperature yesterday: 88 °F (at 4:00 PM)
Minimum temperature yesterday: 75 °F (at 3:00 AM)
Average temperature yesterday: 80 °F

High & Low Weather Summary for the Past Weeks

 TemperatureHumidityPressure
High91 °F (Apr 26, 3:00 PM)100% (Apr 22, 11:00 AM)30.01 "Hg (Apr 22, 11:00 AM)
Low34 °F (May 1, 2:00 PM)46% (Apr 26, 3:00 PM)29.68 "Hg (Apr 26, 4:00 PM)
Average77 °F78%29.87 "Hg
* Reported Apr 20 6:00 AM — May 5 6:00 AM, Boa Vista, Weather by CustomWeather, © 2016

Note: Actual official high and low records may vary slightly from our data, if they occured in-between our weather recording intervals... More about our weather records

Advertising

Boa Vista Weather History for the Previous 24 Hours

Scroll right to see more
 ConditionsComfort  
Time TempWeatherWind HumidityBarometerVisibility
6:00 AM
Thu, May 5
75 °FScattered showers. Partly sunny.1 mph89%N/AN/A
5:00 AM75 °FPartly cloudy.3 mph89%29.89 "HgN/A
4:00 AM75 °FPartly cloudy.2 mph89%29.89 "HgN/A
3:00 AM75 °FPartly cloudy.3 mph89%29.89 "HgN/A
2:00 AM77 °FPassing clouds.2 mph83%29.89 "HgN/A
1:00 AM77 °FPassing clouds.1 mph83%29.92 "HgN/A
12:00 AM77 °FClear.5 mph83%29.92 "Hg10 mi
11:00 PM
Wed, May 4
77 °FClear.7 mph83%29.95 "Hg10 mi
10:00 PM79 °FPassing clouds.5 mph79%29.92 "HgN/A
9:00 PM81 °FPassing clouds.6 mph74%29.89 "HgN/A
8:00 PM82 °FPassing clouds.1 mph70%29.86 "HgN/A
7:00 PM84 °FPassing clouds.1 mph62%29.83 "HgN/A
6:00 PM86 °FScattered clouds.2 mph59%29.83 "HgN/A
5:00 PM86 °FBroken clouds.5 mph55%29.80 "HgN/A
4:00 PM88 °FBroken clouds.6 mph52%29.80 "HgN/A
3:00 PM86 °FBroken clouds.3 mph55%29.83 "HgN/A
2:00 PM86 °FPartly sunny.6 mph55%29.86 "HgN/A
1:00 PM84 °FPartly sunny.3 mph62%29.92 "HgN/A
12:00 PM82 °FPartly sunny.5 mph66%29.95 "HgN/A
11:00 AM84 °FPartly sunny.8 mph62%29.98 "HgN/A
10:00 AM81 °FPartly sunny.7 mph70%29.98 "HgN/A
9:00 AM79 °FScattered clouds.8 mph74%29.98 "HgN/A
8:00 AM77 °FBroken clouds.7 mph79%29.98 "HgN/A
7:00 AM75 °FBroken clouds.2 mph83%29.95 "HgN/A
Weather by CustomWeather, © 2016

See weather overviewHow to use our weather pages